Time,TemperatureF,DewpointF,PressureIn,WindDirection,WindDirectionDegrees,WindSpeedMPH,WindSpeedGustMPH,Humidity,HourlyPrecipIn,Conditions,Clouds,dailyrainin,SoftwareType,DateUTC
2013-04-05 00:03:00,39.0,25.0,29.68,WSW,245,2.0,5.0,56,0.00,,,-99.99,,2013-04-05 04:03:00,
2013-04-05 00:12:00,39.0,25.0,29.68,WSW,245,2.0,5.0,56,0.00,,,-99.99,,2013-04-05 04:12:00,
2013-04-05 00:23:00,39.0,23.0,29.68,WSW,248,3.0,6.0,53,0.00,,,-99.99,,2013-04-05 04:23:00,
2013-04-05 00:32:00,38.0,22.0,29.68,WSW,239,3.0,6.0,52,0.00,,,-99.99,,2013-04-05 04:32:00,
2013-04-05 00:42:00,38.0,22.0,29.68,WSW,239,3.0,6.0,52,0.00,,,-99.99,,2013-04-05 04:42:00,
2013-04-05 00:52:00,38.0,23.0,29.68,SW,230,2.0,7.0,55,0.00,,,-99.99,,2013-04-05 04:52:00,
2013-04-05 01:02:00,38.0,24.0,29.68,WSW,252,2.0,5.0,57,0.00,,,-99.99,,2013-04-05 05:02:00,
2013-04-05 01:13:00,38.0,24.0,29.68,WSW,252,2.0,5.0,57,0.00,,,-99.99,,2013-04-05 05:13:00,
2013-04-05 01:22:00,38.0,25.0,29.68,WSW,257,2.0,5.0,60,0.00,,,-99.99,,2013-04-05 05:22:00,
2013-04-05 01:32:00,38.0,27.0,29.68,WSW,251,2.0,4.0,63,0.00,,,-99.99,,2013-04-05 05:32:00,
2013-04-05 01:42:00,38.0,27.0,29.68,WSW,251,2.0,4.0,63,0.00,,,-99.99,,2013-04-05 05:42:00,
2013-04-05 01:53:00,38.0,28.0,29.68,WSW,246,3.0,6.0,66,0.00,,,-99.99,,2013-04-05 05:53:00,
2013-04-05 02:02:00,38.0,28.0,29.68,SW,234,2.0,5.0,67,0.00,,,-99.99,,2013-04-05 06:02:00,
2013-04-05 02:12:00,38.0,28.0,29.68,SW,234,2.0,5.0,67,0.00,,,-99.99,,2013-04-05 06:12:00,
2013-04-05 02:22:00,38.0,29.0,29.67,WSW,244,3.0,5.0,69,0.00,,,-99.99,,2013-04-05 06:22:00,
2013-04-05 02:32:00,38.0,29.0,29.65,WSW,247,3.0,4.0,69,0.00,,,-99.99,,2013-04-05 06:32:00,
2013-04-05 02:42:00,38.0,29.0,29.65,WSW,247,3.0,4.0,69,0.00,,,-99.99,,2013-04-05 06:42:00,
2013-04-05 02:52:00,38.0,29.0,29.65,WSW,246,2.0,5.0,69,0.00,,,-99.99,,2013-04-05 06:52:00,
2013-04-05 03:03:00,38.0,29.0,29.65,WSW,239,2.0,4.0,70,0.00,,,-99.99,,2013-04-05 07:03:00,
2013-04-05 03:12:00,38.0,29.0,29.65,WSW,239,2.0,4.0,70,0.00,,,-99.99,,2013-04-05 07:12:00,
2013-04-05 03:22:00,38.0,29.0,29.65,WSW,250,2.0,5.0,70,0.00,,,-99.99,,2013-04-05 07:22:00,
2013-04-05 03:32:00,38.0,29.0,29.65,WSW,245,2.0,5.0,70,0.00,,,-99.99,,2013-04-05 07:32:00,
2013-04-05 03:42:00,38.0,29.0,29.65,WSW,245,2.0,5.0,70,0.00,,,-99.99,,2013-04-05 07:42:00,
2013-04-05 03:53:00,38.0,29.0,29.65,WSW,249,2.0,4.0,71,0.00,,,-99.99,,2013-04-05 07:53:00,
2013-04-05 04:02:00,38.0,29.0,29.63,SW,233,1.0,3.0,71,0.00,,,-99.99,,2013-04-05 08:02:00,
2013-04-05 04:13:00,38.0,29.0,29.63,SW,233,1.0,3.0,71,0.00,,,-99.99,,2013-04-05 08:13:00,
2013-04-05 04:22:00,38.0,30.0,29.62,WSW,237,1.0,3.0,72,0.00,,,-99.99,,2013-04-05 08:22:00,
2013-04-05 04:32:00,38.0,30.0,29.62,WSW,246,2.0,3.0,72,0.00,,,-99.99,,2013-04-05 08:32:00,
2013-04-05 04:43:00,38.0,30.0,29.62,WSW,246,2.0,3.0,72,0.00,,,-99.99,,2013-04-05 08:43:00,
2013-04-05 04:52:00,38.0,30.0,29.62,WSW,241,1.0,4.0,72,0.00,,,-99.99,,2013-04-05 08:52:00,
2013-04-05 05:02:00,39.0,31.0,29.62,WSW,257,2.0,4.0,73,0.00,,,-99.99,,2013-04-05 09:02:00,
2013-04-05 05:12:00,39.0,31.0,29.62,WSW,257,2.0,4.0,73,0.00,,,-99.99,,2013-04-05 09:12:00,
2013-04-05 05:22:00,38.0,30.0,29.62,WSW,242,1.0,3.0,73,0.00,,,-99.99,,2013-04-05 09:22:00,
2013-04-05 05:33:00,38.0,31.0,29.62,WSW,240,1.0,3.0,75,0.00,,,-99.99,,2013-04-05 09:33:00,
2013-04-05 05:43:00,38.0,31.0,29.62,WSW,240,1.0,3.0,75,0.00,,,-99.99,,2013-04-05 09:43:00,
2013-04-05 05:52:00,38.0,31.0,29.61,WSW,241,0.0,2.0,75,0.00,,,-99.99,,2013-04-05 09:52:00,
2013-04-05 06:03:00,38.0,31.0,29.62,WSW,245,0.0,3.0,76,0.00,,,-99.99,,2013-04-05 10:03:00,
2013-04-05 06:13:00,38.0,31.0,29.62,WSW,245,0.0,3.0,76,0.00,,,-99.99,,2013-04-05 10:13:00,
2013-04-05 06:23:00,38.0,31.0,29.59,WSW,242,0.0,1.0,77,0.00,,,-99.99,,2013-04-05 10:23:00,
2013-04-05 06:33:00,38.0,32.0,29.59,SSW,201,1.0,2.0,78,0.00,,,-99.99,,2013-04-05 10:33:00,
2013-04-05 06:43:00,38.0,32.0,29.59,SSW,201,1.0,2.0,78,0.00,,,-99.99,,2013-04-05 10:43:00,
2013-04-05 06:53:00,38.0,32.0,29.59,SW,219,1.0,2.0,79,0.00,,,-99.99,,2013-04-05 10:53:00,
2013-04-05 07:03:00,38.0,32.0,29.59,SW,229,1.0,3.0,79,0.00,,,-99.99,,2013-04-05 11:03:00,
2013-04-05 07:13:00,38.0,32.0,29.59,SW,229,1.0,3.0,79,0.00,,,-99.99,,2013-04-05 11:13:00,
2013-04-05 07:22:00,38.0,32.0,29.59,WSW,246,0.0,3.0,79,0.00,,,-99.99,,2013-04-05 11:22:00,
2013-04-05 07:33:00,38.0,32.0,29.59,SW,220,0.0,2.0,80,0.00,,,-99.99,,2013-04-05 11:33:00,
2013-04-05 07:42:00,38.0,32.0,29.59,SW,220,0.0,2.0,80,0.00,,,-99.99,,2013-04-05 11:42:00,
2013-04-05 07:52:00,39.0,33.0,29.59,WSW,240,0.0,2.0,80,0.00,,,-99.99,,2013-04-05 11:52:00,
2013-04-05 08:02:00,39.0,33.0,29.59,WSW,244,0.0,1.0,80,0.00,,,-99.99,,2013-04-05 12:02:00,
2013-04-05 08:12:00,39.0,33.0,29.59,WSW,244,0.0,1.0,80,0.00,,,-99.99,,2013-04-05 12:12:00,
2013-04-05 08:22:00,39.0,34.0,29.59,SSW,205,0.0,1.0,81,0.00,,,-99.99,,2013-04-05 12:22:00,
2013-04-05 08:32:00,39.0,34.0,29.56,SW,234,0.0,1.0,83,0.00,,,-99.99,,2013-04-05 12:32:00,
2013-04-05 08:42:00,39.0,34.0,29.56,SW,234,0.0,1.0,83,0.00,,,-99.99,,2013-04-05 12:42:00,
2013-04-05 08:52:00,40.0,35.0,29.57,WSW,244,0.0,1.0,81,0.00,,,-99.99,,2013-04-05 12:52:00,
2013-04-05 09:02:00,41.0,35.0,29.59,WSW,246,0.0,0.0,79,0.00,,,-99.99,,2013-04-05 13:02:00,
2013-04-05 09:12:00,41.0,35.0,29.59,WSW,246,0.0,0.0,79,0.00,,,-99.99,,2013-04-05 13:12:00,
2013-04-05 09:23:00,42.0,35.0,29.56,SSW,207,0.0,1.0,77,0.00,,,-99.99,,2013-04-05 13:23:00,
2013-04-05 09:32:00,45.0,36.0,29.56,West,279,1.0,2.0,71,0.00,,,-99.99,,2013-04-05 13:32:00,
2013-04-05 09:42:00,45.0,36.0,29.56,West,279,1.0,2.0,71,0.00,,,-99.99,,2013-04-05 13:42:00,
2013-04-05 09:52:00,47.0,36.0,29.56,ENE,69,1.0,2.0,65,0.00,,,-99.99,,2013-04-05 13:52:00,
2013-04-05 10:03:00,52.0,36.0,29.56,WNW,289,1.0,2.0,54,0.00,,,-99.99,,2013-04-05 14:03:00,
2013-04-05 10:12:00,52.0,36.0,29.56,WNW,289,1.0,2.0,54,0.00,,,-99.99,,2013-04-05 14:12:00,
2013-04-05 10:23:00,56.0,35.0,29.55,West,280,1.0,3.0,45,0.00,,,-99.99,,2013-04-05 14:23:00,
2013-04-05 10:36:00,55.0,34.0,29.55,WNW,283,2.0,5.0,45,0.00,,,-99.99,,2013-04-05 14:36:00,
2013-04-05 10:43:00,55.0,34.0,29.55,WNW,283,2.0,5.0,45,0.00,,,-99.99,,2013-04-05 14:43:00,
2013-04-05 10:54:00,63.0,32.0,29.53,WNW,288,1.0,3.0,31,0.00,,,-99.99,,2013-04-05 14:54:00,
2013-04-05 11:02:00,61.0,31.0,29.53,WNW,299,2.0,4.0,32,0.00,,,-99.99,,2013-04-05 15:02:00,
2013-04-05 11:13:00,61.0,31.0,29.53,WNW,299,2.0,4.0,32,0.00,,,-99.99,,2013-04-05 15:13:00,
2013-04-05 11:23:00,63.0,29.0,29.53,WNW,285,2.0,5.0,28,0.00,,,-99.99,,2013-04-05 15:23:00,
2013-04-05 11:33:00,60.0,29.0,29.53,WNW,295,3.0,6.0,31,0.00,,,-99.99,,2013-04-05 15:33:00,
2013-04-05 11:43:00,60.0,29.0,29.53,WNW,295,3.0,6.0,31,0.00,,,-99.99,,2013-04-05 15:43:00,
2013-04-05 11:54:00,60.0,29.0,29.53,WNW,285,3.0,7.0,31,0.00,,,-99.99,,2013-04-05 15:54:00,
2013-04-05 12:03:00,59.0,28.0,29.53,WNW,289,3.0,8.0,30,0.00,,,-99.99,,2013-04-05 16:03:00,
2013-04-05 12:13:00,59.0,28.0,29.53,WNW,289,3.0,8.0,30,0.00,,,-99.99,,2013-04-05 16:13:00,
2013-04-05 12:23:00,66.0,28.0,29.50,ENE,69,3.0,5.0,24,0.00,,,-99.99,,2013-04-05 16:23:00,
2013-04-05 12:33:00,68.0,29.0,29.50,ENE,69,2.0,6.0,23,0.00,,,-99.99,,2013-04-05 16:33:00,
2013-04-05 12:42:00,68.0,29.0,29.50,ENE,69,2.0,6.0,23,0.00,,,-99.99,,2013-04-05 16:42:00,
2013-04-05 12:53:00,67.0,29.0,29.50,WNW,289,3.0,5.0,24,0.00,,,-99.99,,2013-04-05 16:53:00,
2013-04-05 13:03:00,67.0,29.0,29.50,WNW,289,2.0,6.0,24,0.00,,,-99.99,,2013-04-05 17:03:00,
2013-04-05 13:13:00,67.0,29.0,29.50,WNW,289,2.0,6.0,24,0.00,,,-99.99,,2013-04-05 17:13:00,
2013-04-05 13:23:00,69.0,26.0,29.47,ENE,68,3.0,7.0,20,0.00,,,-99.99,,2013-04-05 17:23:00,
2013-04-05 13:32:00,70.0,27.0,29.47,WNW,287,2.0,5.0,20,0.00,,,-99.99,,2013-04-05 17:32:00,
2013-04-05 13:45:00,70.0,27.0,29.47,WNW,287,2.0,5.0,20,0.00,,,-99.99,,2013-04-05 17:45:00,
2013-04-05 13:53:00,72.0,25.0,29.47,ENE,67,3.0,5.0,17,0.00,,,-99.99,,2013-04-05 17:53:00,
2013-04-05 14:02:00,73.0,24.0,29.47,ENE,76,2.0,5.0,16,0.00,,,-99.99,,2013-04-05 18:02:00,
2013-04-05 14:13:00,73.0,24.0,29.47,ENE,76,2.0,5.0,16,0.00,,,-99.99,,2013-04-05 18:13:00,
2013-04-05 14:23:00,71.0,24.0,29.47,WNW,294,3.0,5.0,17,0.00,,,-99.99,,2013-04-05 18:23:00,
2013-04-05 14:33:00,68.0,23.0,29.47,WNW,288,2.0,8.0,18,0.00,,,-99.99,,2013-04-05 18:33:00,
2013-04-05 14:43:00,68.0,23.0,29.47,WNW,288,2.0,8.0,18,0.00,,,-99.99,,2013-04-05 18:43:00,
2013-04-05 14:53:00,66.0,23.0,29.46,WNW,285,3.0,7.0,19,0.00,,,-99.99,,2013-04-05 18:53:00,
2013-04-05 15:02:00,67.0,22.0,29.44,West,281,2.0,6.0,18,0.00,,,-99.99,,2013-04-05 19:02:00,
2013-04-05 15:13:00,67.0,22.0,29.44,West,281,2.0,6.0,18,0.00,,,-99.99,,2013-04-05 19:13:00,
2013-04-05 15:23:00,70.0,23.0,29.44,WNW,286,3.0,6.0,17,0.00,,,-99.99,,2013-04-05 19:23:00,
2013-04-05 15:33:00,70.0,23.0,29.44,WNW,286,3.0,6.0,17,0.00,,,-99.99,,2013-04-05 19:33:00,
2013-04-05 15:42:00,70.0,23.0,29.44,WNW,286,3.0,6.0,17,0.00,,,-99.99,,2013-04-05 19:42:00,
2013-04-05 15:53:00,70.0,23.0,29.44,WNW,286,3.0,6.0,17,0.00,,,-99.99,,2013-04-05 19:53:00,
2013-04-05 16:02:00,70.0,23.0,29.44,WNW,286,3.0,6.0,17,0.00,,,-99.99,,2013-04-05 20:02:00,
2013-04-05 16:22:00,67.0,25.0,29.44,NNW,335,4.0,10.0,20,0.00,,,-99.99,,2013-04-05 20:22:00,
2013-04-05 16:33:00,67.0,25.0,29.44,NNW,335,4.0,10.0,20,0.00,,,-99.99,,2013-04-05 20:33:00,
2013-04-05 16:43:00,67.0,25.0,29.44,NNW,335,4.0,10.0,20,0.00,,,-99.99,,2013-04-05 20:43:00,
2013-04-05 16:52:00,64.0,24.0,29.44,WNW,292,4.0,7.0,22,0.00,,,-99.99,,2013-04-05 20:52:00,
2013-04-05 17:03:00,64.0,24.0,29.44,NNE,33,3.0,9.0,22,0.00,,,-99.99,,2013-04-05 21:03:00,
2013-04-05 17:13:00,64.0,24.0,29.44,NNE,33,3.0,9.0,22,0.00,,,-99.99,,2013-04-05 21:13:00,
2013-04-05 17:23:00,63.0,25.0,29.44,WNW,295,4.0,10.0,23,0.00,,,-99.99,,2013-04-05 21:23:00,
2013-04-05 17:33:00,63.0,25.0,29.44,WNW,299,3.0,9.0,23,0.00,,,-99.99,,2013-04-05 21:33:00,
2013-04-05 17:43:00,63.0,25.0,29.44,WNW,299,3.0,9.0,23,0.00,,,-99.99,,2013-04-05 21:43:00,
2013-04-05 17:55:00,62.0,26.0,29.47,WNW,294,4.0,10.0,25,0.00,,,-99.99,,2013-04-05 21:55:00,
2013-04-05 18:03:00,62.0,23.0,29.47,NNE,31,4.0,10.0,22,0.00,,,-99.99,,2013-04-05 22:03:00,
2013-04-05 18:13:00,62.0,23.0,29.47,NNE,31,4.0,10.0,22,0.00,,,-99.99,,2013-04-05 22:13:00,
2013-04-05 18:23:00,61.0,20.0,29.47,WNW,297,4.0,8.0,20,0.00,,,-99.99,,2013-04-05 22:23:00,
2013-04-05 18:33:00,60.0,20.0,29.47,NW,305,3.0,7.0,21,0.00,,,-99.99,,2013-04-05 22:33:00,
2013-04-05 18:43:00,60.0,20.0,29.47,NW,305,3.0,7.0,21,0.00,,,-99.99,,2013-04-05 22:43:00,
2013-04-05 18:53:00,59.0,19.0,29.50,WNW,299,5.0,12.0,21,0.00,,,-99.99,,2013-04-05 22:53:00,
2013-04-05 19:03:00,56.0,18.0,29.50,WNW,299,3.0,8.0,22,0.00,,,-99.99,,2013-04-05 23:03:00,
2013-04-05 19:12:00,56.0,18.0,29.50,WNW,299,3.0,8.0,22,0.00,,,-99.99,,2013-04-05 23:12:00,
2013-04-05 19:22:00,55.0,17.0,29.50,WNW,302,4.0,11.0,22,0.00,,,-99.99,,2013-04-05 23:22:00,
2013-04-05 19:32:00,55.0,17.0,29.50,WNW,302,4.0,11.0,22,0.00,,,-99.99,,2013-04-05 23:32:00,
2013-04-05 19:42:00,55.0,17.0,29.50,WNW,302,4.0,11.0,22,0.00,,,-99.99,,2013-04-05 23:42:00,
2013-04-05 19:53:00,53.0,16.0,29.50,NW,326,3.0,8.0,23,0.00,,,-99.99,,2013-04-05 23:53:00,
2013-04-05 20:02:00,51.0,16.0,29.53,WNW,293,2.0,9.0,24,0.00,,,-99.99,,2013-04-06 00:02:00,
2013-04-05 20:13:00,51.0,16.0,29.53,WNW,293,2.0,9.0,24,0.00,,,-99.99,,2013-04-06 00:13:00,
2013-04-05 20:23:00,50.0,17.0,29.53,NW,324,3.0,5.0,27,0.00,,,-99.99,,2013-04-06 00:23:00,
2013-04-05 20:33:00,50.0,16.0,29.53,NNE,30,3.0,6.0,26,0.00,,,-99.99,,2013-04-06 00:33:00,
2013-04-05 20:42:00,50.0,16.0,29.53,NNE,30,3.0,6.0,26,0.00,,,-99.99,,2013-04-06 00:42:00,
2013-04-05 20:52:00,49.0,16.0,29.54,NNW,338,3.0,6.0,27,0.00,,,-99.99,,2013-04-06 00:52:00,
2013-04-05 21:02:00,48.0,16.0,29.56,NW,324,3.0,8.0,27,0.00,,,-99.99,,2013-04-06 01:02:00,
2013-04-05 21:13:00,48.0,16.0,29.56,WNW,300,3.0,10.0,27,0.00,,,-99.99,,2013-04-06 01:13:00,
2013-04-05 21:22:00,48.0,16.0,29.56,WNW,300,3.0,10.0,27,0.00,,,-99.99,,2013-04-06 01:22:00,
2013-04-05 21:33:00,47.0,16.0,29.56,NNW,332,3.0,9.0,29,0.00,,,-99.99,,2013-04-06 01:33:00,
2013-04-05 21:43:00,47.0,16.0,29.56,NNW,332,3.0,9.0,29,0.00,,,-99.99,,2013-04-06 01:43:00,
2013-04-05 21:53:00,46.0,16.0,29.56,WNW,300,2.0,7.0,30,0.00,,,-99.99,,2013-04-06 01:53:00,
2013-04-05 22:02:00,46.0,17.0,29.59,WNW,295,3.0,8.0,31,0.00,,,-99.99,,2013-04-06 02:02:00,
2013-04-05 22:12:00,46.0,17.0,29.59,WNW,295,3.0,8.0,31,0.00,,,-99.99,,2013-04-06 02:12:00,
2013-04-05 22:23:00,46.0,18.0,29.59,WNW,293,2.0,6.0,32,0.00,,,-99.99,,2013-04-06 02:23:00,
2013-04-05 22:32:00,46.0,19.0,29.59,NNW,328,3.0,9.0,34,0.00,,,-99.99,,2013-04-06 02:32:00,
2013-04-05 22:42:00,46.0,19.0,29.59,NNW,328,3.0,9.0,34,0.00,,,-99.99,,2013-04-06 02:42:00,
2013-04-05 22:53:00,44.0,19.0,29.59,NNE,31,3.0,8.0,37,0.00,,,-99.99,,2013-04-06 02:53:00,
2013-04-05 23:02:00,43.0,19.0,29.59,NW,305,3.0,7.0,37,0.00,,,-99.99,,2013-04-06 03:02:00,
2013-04-05 23:13:00,43.0,19.0,29.59,NW,305,3.0,7.0,37,0.00,,,-99.99,,2013-04-06 03:13:00,
2013-04-05 23:22:00,42.0,18.0,29.59,NW,315,2.0,7.0,38,0.00,,,-99.99,,2013-04-06 03:22:00,
2013-04-05 23:34:00,42.0,19.0,29.59,WNW,292,3.0,8.0,39,0.00,,,-99.99,,2013-04-06 03:34:00,
2013-04-05 23:43:00,42.0,19.0,29.59,WNW,292,3.0,8.0,39,0.00,,,-99.99,,2013-04-06 03:43:00,
2013-04-05 23:53:00,41.0,17.0,29.62,NW,310,3.0,7.0,38,0.00,,,-99.99,,2013-04-06 03:53:00,